Weather History for Comox, BC

Change the Weather History Date:

Wednesday, September 25, 2013

  Actual Average Record
Temperature  
Mean Temperature 54 °F -  
Max Temperature 62 °F 57 °F 69 °F (2002)
Min Temperature 47 °F 43 °F 42 °F (1996)
Degree Days  
Heating Degree Days 10    
Growing Degree Days 4 (Base 50)    
Moisture  
Dew Point 44 °F    
Average Humidity 68    
Maximum Humidity 82    
Minimum Humidity 42    
Precipitation  
Precipitation 0.00 in 0.15 in - ()
Sea Level Pressure  
Sea Level Pressure 29.98 in    
Wind  
Wind Speed 10 mph ()    
Max Wind Speed 20 mph    
Max Gust Speed 23 mph    
Visibility 18.3 miles    
Events Rain    
Averages and records for this station are not official NWS values.
T = Trace of Precipitation, MM = Missing Value Source: Averaged Metar Reports

Daily Weather History Graph

Daily Weather History Graph

Search for Another Location

Airport:

Trip Planner

Search our weather history database for the weather conditions in past years. The results will help you decide how hot, cold, wet, or windy it might be!

Date:

Astronomy

Sep. 25, 2013 Rise Set
Actual Time 7:11 AM PDT 7:10 PM PDT
Civil Twilight 6:38 AM PDT 7:42 PM PDT
Nautical Twilight 6:01 AM PDT 8:19 PM PDT
Astronomical Twilight 5:22 AM PDT 8:58 PM PDT
Moon 10:52 PM PDT (9/25) 1:51 PM PDT (9/25)
Length of Visible Light 13h 03m
Length of Day
11h 59m
Waning Gibbous, 63% of the Moon is Illuminated
Sep 25
Waning Gibbous
Sep 26
Last Quarter
Oct 4
New
Oct 11
First Quarter
Oct 18
Full

Hourly Weather History & Observations

Time (PDT) Temp. Dew Point Humidity Pressure Visibility Wind Dir Wind Speed Gust Speed Precip Events Conditions
12:00 AM 50.0 °F 44.6 °F 82% 29.92 in 15.0 mi NW 6.9 mph - N/A   Mostly Cloudy
1:00 AM 50.0 °F 42.8 °F 76% 29.92 in 15.0 mi NW 10.4 mph - N/A Rain Light Rain Showers
1:23 AM - - N/A% - 15.0 mi NW 8.1 mph - N/A   Mostly Cloudy
2:00 AM 50.0 °F 42.8 °F 76% 29.93 in 15.0 mi NNW 9.2 mph - N/A   Mostly Cloudy
3:00 AM 50.0 °F 42.8 °F 76% 29.93 in 15.0 mi NW 11.5 mph 17.3 mph N/A   Scattered Clouds
4:00 AM 48.2 °F 42.8 °F 82% 29.94 in 15.0 mi NW 10.4 mph - N/A   Scattered Clouds
5:00 AM 49 °F 42 °F 68% 29.94 in 15 mi NNW 10.4 mph - -   Partly Cloudy
5:00 AM 48.2 °F 41.0 °F 76% 29.94 in 15.0 mi NW 10.4 mph - N/A   Partly Cloudy
6:00 AM 48.2 °F 42.8 °F 82% 29.96 in 15.0 mi NNW 10.4 mph - N/A   Partly Cloudy
7:00 AM 48.2 °F 42.8 °F 82% 29.98 in 20.0 mi NW 11.5 mph 17.3 mph N/A   Partly Cloudy
8:00 AM 48.2 °F 42.8 °F 82% 29.99 in 20.0 mi NW 11.5 mph - N/A   Partly Cloudy
9:00 AM 50.0 °F 42.8 °F 76% 30.01 in 20.0 mi NNW 16.1 mph 23.0 mph N/A   Partly Cloudy
10:00 AM 51.8 °F 44.6 °F 76% 30.01 in 20.0 mi NNW 19.6 mph - N/A   Partly Cloudy
11:00 AM 54 °F 46 °F 65% 30.02 in 19 mi North 17.3 mph - -   Scattered Clouds
11:00 AM 55.4 °F 46.4 °F 72% 30.02 in 20.0 mi NNW 18.4 mph - N/A   Partly Cloudy
12:00 PM 57.2 °F 48.2 °F 72% 30.01 in 20.0 mi NNW 15.0 mph - N/A   Partly Cloudy
1:00 PM 57.2 °F 48.2 °F 72% 30.00 in 20.0 mi North 13.8 mph - N/A   Partly Cloudy
2:00 PM 60.8 °F 48.2 °F 63% 29.99 in 20.0 mi North 12.7 mph - N/A   Partly Cloudy
3:00 PM 60.8 °F 48.2 °F 63% 29.99 in 20.0 mi North 11.5 mph - N/A   Partly Cloudy
4:00 PM 60.8 °F 50.0 °F 68% 29.99 in 20.0 mi NNW 10.4 mph - N/A   Partly Cloudy
5:00 PM 62 °F 48 °F 49% 29.99 in 19 mi North 11.5 mph - -   Scattered Clouds
5:00 PM 62.6 °F 48.2 °F 59% 29.99 in 20.0 mi North 11.5 mph - N/A   Partly Cloudy
6:00 PM 60.8 °F 46.4 °F 59% 29.99 in 20.0 mi NNW 9.2 mph - N/A   Partly Cloudy
7:00 PM 59.0 °F 44.6 °F 59% 29.99 in 20.0 mi NNW 9.2 mph - N/A   Partly Cloudy
8:00 PM 55.4 °F 46.4 °F 72% 30.00 in 20.0 mi NNW 10.4 mph - N/A   Partly Cloudy
9:00 PM 57.2 °F 41.0 °F 55% 30.01 in 20.0 mi NW 12.7 mph - N/A   Partly Cloudy
10:00 PM 55.4 °F 39.2 °F 54% 30.02 in 20.0 mi NNW 12.7 mph 19.6 mph N/A   Partly Cloudy
11:00 PM 55 °F 38 °F 42% 30.03 in 19 mi NNW 13.8 mph - -   Scattered Clouds
11:00 PM 55.4 °F 39.2 °F 54% 30.03 in 20.0 mi NNW 13.8 mph 19.6 mph N/A   Partly Cloudy